,,PA_Meas_PMT16A,,PR_Meas_QMR101_102,,RH_Meas_QMH101,,SR_Meas_QMS101,,TA_Meas_QMH101,,GenWind,,GenWind,
time,status,PA,status,PR,status,RH,status,SR,status,TA,status,DirAvg,status,SpdAvg,
2016-10-26, 14:22:04,VALID,918.027,VALID,0,INVALID,120.724,VALID,161.699,VALID,19.5093,VALID,142,VALID,1.59609,
2016-10-26, 14:23:04,VALID,918.007,VALID,0,INVALID,120.778,VALID,164.815,VALID,19.6068,VALID,161,VALID,1.56719,
2016-10-26, 14:24:04,VALID,918.044,VALID,0,INVALID,120.519,VALID,163.74,VALID,19.6068,VALID,155,VALID,1.75234,
2016-10-26, 14:25:04,VALID,918.082,VALID,0,INVALID,120.602,VALID,163.096,VALID,19.7043,VALID,168,VALID,1.38633,
2016-10-26, 14:26:04,VALID,918.1,VALID,0,INVALID,120.496,VALID,163.74,VALID,19.7823,VALID,175,VALID,1.10859,
2016-10-26, 14:27:04,VALID,918.136,VALID,0,INVALID,119.977,VALID,164.492,VALID,19.8213,VALID,157,VALID,1.52422,
2016-10-26, 14:28:04,VALID,918.174,VALID,0,INVALID,119.863,VALID,167.931,VALID,19.8798,VALID,157,VALID,1.7125,
2016-10-26, 14:29:04,VALID,918.2,VALID,0,INVALID,119.932,VALID,171.691,VALID,19.9773,VALID,170,VALID,1.00117,
2016-10-26, 14:30:04,VALID,918.237,VALID,0,INVALID,119.108,VALID,173.303,VALID,19.9773,VALID,160,VALID,1.58203,
2016-10-26, 14:31:04,VALID,918.27,VALID,0,INVALID,118.719,VALID,176.956,VALID,19.9953,VALID,163,VALID,1.83438,
2016-10-26, 14:32:04,VALID,918.295,VALID,0,INVALID,118.582,VALID,185.014,VALID,20.0148,VALID,156,VALID,2.20313,
2016-10-26, 14:33:04,VALID,918.303,VALID,0,INVALID,118.498,VALID,187.162,VALID,20.0538,VALID,159,VALID,1.82773,
2016-10-26, 14:34:04,VALID,918.354,VALID,0,INVALID,117.873,VALID,188.882,VALID,20.0733,VALID,158,VALID,2.15352,
2016-10-26, 14:35:04,VALID,918.39,VALID,0,INVALID,118.056,VALID,192.857,VALID,20.0733,VALID,172,VALID,1.39141,
2016-10-26, 14:36:04,VALID,918.402,VALID,0,INVALID,118.224,VALID,191.89,VALID,20.1123,VALID,159,VALID,1.97109,
2016-10-26, 14:37:04,VALID,918.449,VALID,0,INVALID,118.75,VALID,182.435,VALID,20.1724,VALID,173,VALID,1.24063,
2016-10-26, 14:38:04,VALID,918.439,VALID,0,INVALID,118.376,VALID,174.807,VALID,20.2098,VALID,152,VALID,1.72109,
2016-10-26, 14:39:04,VALID,918.427,VALID,0,INVALID,117.713,VALID,170.939,VALID,20.2699,VALID,152,VALID,2.00469,
2016-10-26, 14:40:04,VALID,918.464,VALID,0,INVALID,117.683,VALID,168.897,VALID,20.2894,VALID,152,VALID,1.87266,
2016-10-26, 14:41:04,VALID,918.449,VALID,0,INVALID,116.554,VALID,166.426,VALID,20.2504,VALID,161,VALID,1.94062,
2016-10-26, 14:42:04,VALID,918.459,VALID,0,INVALID,113.833,VALID,164.707,VALID,20.2309,VALID,156,VALID,2.02109,
2016-10-26, 14:43:04,VALID,918.476,VALID,0,INVALID,117.385,VALID,166.104,VALID,20.2699,VALID,152,VALID,1.71875,
2016-10-26, 14:44:04,VALID,918.488,VALID,0,INVALID,117.972,VALID,167.393,VALID,20.2684,VALID,153,VALID,1.46445,
2016-10-26, 14:45:04,VALID,918.49,VALID,0,INVALID,117.797,VALID,169.65,VALID,20.3284,VALID,155,VALID,1.35039,
2016-10-26, 14:46:04,VALID,918.488,VALID,0,INVALID,118.476,VALID,172.873,VALID,20.3869,VALID,155,VALID,0.488672,
2016-10-26, 14:47:04,VALID,918.48,VALID,0,INVALID,118.773,VALID,177.923,VALID,20.465,VALID,136,VALID,1.46484,
2016-10-26, 14:48:04,VALID,918.485,VALID,0,INVALID,118.125,VALID,186.733,VALID,20.5235,VALID,150,VALID,1.43867,
2016-10-26, 14:49:04,VALID,918.487,VALID,0,INVALID,115.495,VALID,193.931,VALID,20.582,VALID,137,VALID,1.83477,
2016-10-26, 14:50:04,VALID,918.51,VALID,0,INVALID,112.865,VALID,193.179,VALID,20.6405,VALID,152,VALID,1.89297,
2016-10-26, 14:51:04,VALID,918.548,VALID,0,INVALID,110.677,VALID,191.138,VALID,20.6194,VALID,154,VALID,1.66367,
2016-10-26, 14:52:04,VALID,918.556,VALID,0,INVALID,113.246,VALID,187.807,VALID,20.66,VALID,145,VALID,1.52383,
2016-10-26, 14:53:04,VALID,918.597,VALID,0,INVALID,113.215,VALID,186.41,VALID,20.6795,VALID,146,VALID,1.51602,
2016-10-26, 14:54:04,VALID,918.598,VALID,0,INVALID,114.763,VALID,187.807,VALID,20.699,VALID,143,VALID,1.40469,
2016-10-26, 14:55:04,VALID,918.61,VALID,0,INVALID,111.149,VALID,191.568,VALID,20.7576,VALID,137,VALID,1.49023,
2016-10-26, 14:56:04,VALID,918.603,VALID,0,INVALID,112.941,VALID,195.758,VALID,20.8129,VALID,137,VALID,1.04766,
2016-10-26, 14:57:04,VALID,918.63,VALID,0,VALID,104,VALID,202.312,VALID,20.8145,VALID,135,VALID,1.54531,
2016-10-26, 14:58:04,VALID,918.626,VALID,0,INVALID,114.953,VALID,207.147,VALID,20.8535,VALID,138,VALID,0,
2016-10-26, 14:59:04,VALID,918.639,VALID,0,INVALID,111.401,VALID,213.808,VALID,20.8925,VALID,153,VALID,1.50352,
2016-10-26, 15:00:04,VALID,918.656,VALID,0,INVALID,116.204,VALID,223.155,VALID,20.9495,VALID,137,VALID,0.672656,
2016-10-26, 15:01:04,VALID,918.667,VALID,0,INVALID,116.913,VALID,232.825,VALID,21.0876,VALID,157,VALID,0,
2016-10-26, 15:02:04,VALID,918.68,VALID,0,INVALID,109.091,VALID,244.214,VALID,21.0876,VALID,157,VALID,0,
2016-10-26, 15:03:04,VALID,918.701,VALID,0,VALID,104,VALID,249.908,VALID,21.1266,VALID,145,VALID,0,
2016-10-26, 15:04:04,VALID,918.691,VALID,0,VALID,99.2721,VALID,256.677,VALID,21.1461,VALID,148,VALID,0,
2016-10-26, 15:05:04,VALID,918.746,VALID,0,VALID,102.367,VALID,256.892,VALID,21.0876,VALID,158,VALID,0,
2016-10-26, 15:06:04,VALID,918.766,VALID,0,INVALID,110.334,VALID,258.718,VALID,21.1071,VALID,138,VALID,0,
2016-10-26, 15:07:04,VALID,918.786,VALID,0,INVALID,116.905,VALID,259.685,VALID,21.2421,VALID,116,VALID,0,
2016-10-26, 15:08:04,VALID,918.8,VALID,0,INVALID,110.227,VALID,254.636,VALID,21.3022,VALID,134,VALID,0.569531,
2016-10-26, 15:09:04,VALID,918.825,VALID,0,VALID,98.5784,VALID,252.379,VALID,21.3217,VALID,116,VALID,2.14141,
2016-10-26, 15:10:04,VALID,918.845,VALID,0,VALID,104,VALID,247.007,VALID,21.3396,VALID,132,VALID,1.84883,
2016-10-26, 15:11:04,VALID,918.88,VALID,0,VALID,104,VALID,249.371,VALID,21.3412,VALID,123,VALID,1.53398,
2016-10-26, 15:12:04,VALID,918.881,VALID,0,INVALID,110.555,VALID,251.735,VALID,21.3998,VALID,114,VALID,1.68438,
2016-10-26, 15:13:04,VALID,918.904,VALID,0,INVALID,112.979,VALID,255.388,VALID,21.4567,VALID,123,VALID,0,
2016-10-26, 15:14:04,VALID,918.92,VALID,0,VALID,104,VALID,257.107,VALID,21.5347,VALID,151,VALID,0,
2016-10-26, 15:15:04,VALID,918.941,VALID,0,VALID,104,VALID,261.942,VALID,21.5737,VALID,159,VALID,1.29492,
2016-10-26, 15:16:04,VALID,918.931,VALID,0,VALID,104,VALID,268.066,VALID,21.5932,VALID,170,VALID,0.692578,
2016-10-26, 15:17:04,VALID,918.969,VALID,0,VALID,103.823,VALID,270.859,VALID,21.6713,VALID,168,VALID,0,
2016-10-26, 15:18:04,VALID,918.983,VALID,0,VALID,103.602,VALID,276.768,VALID,21.7688,VALID,138,VALID,0,
2016-10-26, 15:19:04,VALID,919.006,VALID,0,VALID,88.4545,VALID,301.91,VALID,21.7883,VALID,156,VALID,0,
2016-10-26, 15:20:04,VALID,919,VALID,0,VALID,93.5317,VALID,300.728,VALID,21.8095,VALID,161,VALID,0,
2016-10-26, 15:21:04,VALID,919.007,VALID,0,VALID,94.1873,VALID,313.191,VALID,21.9266,VALID,161,VALID,0,
2016-10-26, 15:22:04,VALID,919.006,VALID,0,VALID,90.0021,VALID,322.431,VALID,22.042,VALID,165,VALID,0,
2016-10-26, 15:23:04,VALID,919.015,VALID,0,VALID,88.2639,VALID,319.96,VALID,22.1591,VALID,166,VALID,0,
2016-10-26, 15:24:04,VALID,919.035,VALID,0,VALID,86.8231,VALID,342.952,VALID,22.3347,VALID,180,VALID,0,
2016-10-26, 15:25:04,VALID,919.057,VALID,0,VALID,87.9285,VALID,316.737,VALID,22.4323,VALID,146,VALID,0,
2016-10-26, 15:26:04,VALID,919.083,VALID,0,VALID,85.8168,VALID,350.688,VALID,22.5689,VALID,134,VALID,0,
2016-10-26, 15:27:04,VALID,919.091,VALID,0,VALID,83.8423,VALID,331.778,VALID,22.7445,VALID,165,VALID,0,
2016-10-26, 15:28:04,VALID,919.08,VALID,0,VALID,80.1374,VALID,300.298,VALID,22.8031,VALID,143,VALID,0,
2016-10-26, 15:29:04,VALID,919.079,VALID,0,VALID,81.7459,VALID,306.315,VALID,22.9219,VALID,122,VALID,0,
2016-10-26, 15:30:04,VALID,919.065,VALID,0,VALID,79.8858,VALID,299.546,VALID,22.9202,VALID,115,VALID,0,
2016-10-26, 15:31:04,VALID,919.097,VALID,0,VALID,82.2719,VALID,269.785,VALID,22.9787,VALID,139,VALID,0,
2016-10-26, 15:32:04,VALID,919.099,VALID,0,VALID,80.5795,VALID,256.462,VALID,23.1367,VALID,169,VALID,0,
2016-10-26, 15:33:04,VALID,919.086,VALID,0,VALID,78.3306,VALID,250.23,VALID,23.1544,VALID,148,VALID,0,
2016-10-26, 15:34:04,VALID,919.063,VALID,0,VALID,74.3283,VALID,246.363,VALID,23.0373,VALID,149,VALID,0,
2016-10-26, 15:35:04,VALID,919.065,VALID,0,VALID,75.9978,VALID,244.536,VALID,22.9592,VALID,151,VALID,0,
2016-10-26, 15:36:04,VALID,919.099,VALID,0,VALID,77.0117,VALID,244.536,VALID,22.9965,VALID,152,VALID,0,
2016-10-26, 15:37:04,VALID,919.086,VALID,0,VALID,77.9418,VALID,245.288,VALID,23.0178,VALID,136,VALID,0,
2016-10-26, 15:38:04,VALID,919.11,VALID,0,VALID,79.1311,VALID,246.47,VALID,22.9965,VALID,130,VALID,0,
2016-10-26, 15:39:04,VALID,919.113,VALID,0,VALID,80.3737,VALID,248.189,VALID,22.8599,VALID,147,VALID,0,
2016-10-26, 15:40:04,VALID,919.112,VALID,0,VALID,79.9468,VALID,250.553,VALID,22.8209,VALID,154,VALID,0,
2016-10-26, 15:41:04,VALID,919.114,VALID,0,VALID,81.0598,VALID,253.131,VALID,22.8014,VALID,140,VALID,0,
2016-10-26, 15:42:04,VALID,919.114,VALID,0,VALID,79.192,VALID,256.247,VALID,22.8421,VALID,100,VALID,0,
2016-10-26, 15:43:04,VALID,919.139,VALID,0,VALID,76.3256,VALID,257.322,VALID,22.8226,VALID,94,VALID,0,
2016-10-26, 15:44:04,VALID,919.167,VALID,0,VALID,79.6571,VALID,259.041,VALID,22.8014,VALID,101,VALID,0,
2016-10-26, 15:45:04,VALID,919.191,VALID,0,VALID,79.4894,VALID,261.082,VALID,22.8209,VALID,62,VALID,0,
2016-10-26, 15:46:04,VALID,919.189,VALID,0,VALID,81.3342,VALID,263.983,VALID,22.8387,VALID,42,VALID,0,
2016-10-26, 15:47:04,VALID,919.219,VALID,0,VALID,89.2397,VALID,270.107,VALID,22.8404,VALID,48,VALID,0,
2016-10-26, 15:48:04,VALID,919.212,VALID,0,VALID,104,VALID,284.289,VALID,22.8014,VALID,349,VALID,0.424219,
2016-10-26, 15:49:04,VALID,919.195,VALID,0,INVALID,109.609,VALID,286.868,VALID,22.7233,VALID,333,VALID,0,
2016-10-26, 15:50:04,VALID,919.177,VALID,0,INVALID,111.34,VALID,287.62,VALID,22.6452,VALID,328,VALID,0,
2016-10-26, 15:51:04,VALID,919.192,VALID,0,INVALID,114.435,VALID,292.562,VALID,22.6045,VALID,1,VALID,0,
2016-10-26, 15:52:04,VALID,919.173,VALID,0,INVALID,114.694,VALID,294.066,VALID,22.585,VALID,341,VALID,0,
2016-10-26, 15:53:04,VALID,919.189,VALID,0,INVALID,115.297,VALID,296.108,VALID,22.5867,VALID,357,VALID,0,
2016-10-26, 15:54:04,VALID,919.209,VALID,0,INVALID,115.533,VALID,298.579,VALID,22.6257,VALID,15,VALID,0,
2016-10-26, 15:55:04,VALID,919.205,VALID,0,VALID,104,VALID,305.025,VALID,22.6452,VALID,39,VALID,0,
2016-10-26, 15:56:04,VALID,919.196,VALID,0,INVALID,109.312,VALID,305.778,VALID,22.5867,VALID,45,VALID,0,
2016-10-26, 15:57:04,VALID,919.214,VALID,0,VALID,96.3219,VALID,320.175,VALID,22.5867,VALID,53,VALID,0,
2016-10-26, 15:58:04,VALID,919.224,VALID,0,VALID,95.2012,VALID,315.77,VALID,22.6257,VALID,29,VALID,0,
2016-10-26, 15:59:04,VALID,919.204,VALID,0,VALID,99.6304,VALID,338.869,VALID,22.7038,VALID,47,VALID,0,
2016-10-26, 16:00:04,VALID,919.268,VALID,0,VALID,87.5626,VALID,318.348,VALID,22.7818,VALID,55,VALID,0,
2016-10-26, 16:01:04,VALID,919.26,VALID,0,VALID,83.4688,VALID,315.555,VALID,22.8387,VALID,68,VALID,0,
2016-10-26, 16:02:04,VALID,919.277,VALID,0,VALID,82.0737,VALID,316.307,VALID,22.9753,VALID,68,VALID,0,
2016-10-26, 16:03:04,VALID,919.265,VALID,0,VALID,81.4714,VALID,323.505,VALID,23.1527,VALID,68,VALID,0,
2016-10-26, 16:04:04,VALID,919.296,VALID,0,VALID,82.4091,VALID,338.44,VALID,23.3461,VALID,68,VALID,0,
2016-10-26, 16:05:04,VALID,919.302,VALID,0,VALID,78.14,VALID,339.729,VALID,23.4827,VALID,125,VALID,0,
2016-10-26, 16:06:04,VALID,919.299,VALID,0,VALID,76.9203,VALID,335.002,VALID,23.5022,VALID,126,VALID,0,
2016-10-26, 16:07:04,VALID,919.312,VALID,0,VALID,76.501,VALID,332.96,VALID,23.4454,VALID,146,VALID,0.825781,
2016-10-26, 16:08:04,VALID,919.313,VALID,0,VALID,78.6508,VALID,330.919,VALID,23.4064,VALID,117,VALID,0,
2016-10-26, 16:09:04,VALID,919.345,VALID,0,VALID,78.9481,VALID,327.91,VALID,23.3478,VALID,151,VALID,0.794922,
2016-10-26, 16:10:04,VALID,919.345,VALID,0,VALID,80.3127,VALID,331.993,VALID,23.3088,VALID,131,VALID,0,
2016-10-26, 16:11:04,VALID,919.334,VALID,0,VALID,76.6687,VALID,332.853,VALID,23.3283,VALID,155,VALID,0,
2016-10-26, 16:12:04,VALID,919.34,VALID,0,VALID,79.4207,VALID,328.985,VALID,23.465,VALID,185,VALID,0,
2016-10-26, 16:13:04,VALID,919.314,VALID,0,VALID,78.0866,VALID,327.588,VALID,23.5608,VALID,206,VALID,0,
2016-10-26, 16:14:04,VALID,919.286,VALID,0,VALID,76.5543,VALID,328.662,VALID,23.6797,VALID,168,VALID,0,
2016-10-26, 16:15:04,VALID,919.292,VALID,0,VALID,74.2978,VALID,324.257,VALID,23.6388,VALID,181,VALID,0,
2016-10-26, 16:16:04,VALID,919.255,VALID,0,VALID,72.6664,VALID,324.902,VALID,23.6602,VALID,163,VALID,0,
2016-10-26, 16:17:04,VALID,919.273,VALID,0,VALID,73.5126,VALID,320.497,VALID,23.6388,VALID,188,VALID,0,
2016-10-26, 16:18:04,VALID,919.22,VALID,0,VALID,74.801,VALID,319.745,VALID,23.7169,VALID,178,VALID,0,
2016-10-26, 16:19:04,VALID,919.242,VALID,0,VALID,76.6611,VALID,320.067,VALID,23.795,VALID,144,VALID,0,
2016-10-26, 16:20:04,VALID,919.241,VALID,0,VALID,75.266,VALID,320.282,VALID,23.7773,VALID,178,VALID,0,
2016-10-26, 16:21:04,VALID,919.236,VALID,0,VALID,74.7705,VALID,321.786,VALID,23.7755,VALID,165,VALID,0,
2016-10-26, 16:22:04,VALID,919.208,VALID,0,VALID,75.4947,VALID,324.58,VALID,23.6797,VALID,145,VALID,0,
2016-10-26, 16:23:04,VALID,919.188,VALID,0,VALID,76.4781,VALID,326.299,VALID,23.5608,VALID,149,VALID,0,
2016-10-26, 16:24:04,VALID,919.187,VALID,0,VALID,76.3638,VALID,330.059,VALID,23.5217,VALID,162,VALID,0,
2016-10-26, 16:25:04,VALID,919.198,VALID,0,VALID,78.9176,VALID,336.076,VALID,23.5022,VALID,167,VALID,0,
2016-10-26, 16:26:04,VALID,919.222,VALID,0,VALID,78.0943,VALID,339.084,VALID,23.465,VALID,151,VALID,0,
2016-10-26, 16:27:04,VALID,919.229,VALID,0,VALID,78.4907,VALID,348.539,VALID,23.4632,VALID,157,VALID,0,
2016-10-26, 16:28:04,VALID,919.212,VALID,0,VALID,75.5557,VALID,348.539,VALID,23.4454,VALID,149,VALID,0,
2016-10-26, 16:29:04,VALID,919.188,VALID,0,VALID,78.8566,VALID,353.804,VALID,23.6211,VALID,152,VALID,0,
2016-10-26, 16:30:04,VALID,919.175,VALID,0,VALID,74.7247,VALID,354.771,VALID,23.6602,VALID,144,VALID,0,
2016-10-26, 16:31:04,VALID,919.175,VALID,0,VALID,75.3651,VALID,367.771,VALID,23.6797,VALID,138,VALID,0,
2016-10-26, 16:32:04,VALID,919.155,VALID,0,VALID,78.0257,VALID,357.457,VALID,23.7364,VALID,125,VALID,0,
2016-10-26, 16:33:04,VALID,919.132,VALID,0,VALID,77.0194,VALID,356.382,VALID,23.7968,VALID,124,VALID,0,
2016-10-26, 16:34:04,VALID,919.169,VALID,0,VALID,74.1453,VALID,357.027,VALID,23.834,VALID,141,VALID,0,
2016-10-26, 16:35:04,VALID,919.128,VALID,0,VALID,75.0297,VALID,360.143,VALID,23.8749,VALID,153,VALID,0,
2016-10-26, 16:36:04,VALID,919.129,VALID,0,VALID,75.3803,VALID,359.391,VALID,23.8926,VALID,120,VALID,0,
2016-10-26, 16:37:04,VALID,919.12,VALID,0,VALID,73.505,VALID,356.275,VALID,23.9335,VALID,161,VALID,0.884375,
2016-10-26, 16:38:04,VALID,919.15,VALID,0,VALID,74.6104,VALID,358.424,VALID,23.9707,VALID,118,VALID,0,
2016-10-26, 16:39:04,VALID,919.171,VALID,0,VALID,74.2444,VALID,355.2,VALID,23.9707,VALID,122,VALID,0,
2016-10-26, 16:40:04,VALID,919.138,VALID,0,VALID,74.1682,VALID,354.878,VALID,24.0292,VALID,109,VALID,0,
2016-10-26, 16:41:04,VALID,919.117,VALID,0,VALID,74.801,VALID,356.382,VALID,23.8926,VALID,109,VALID,0,
2016-10-26, 16:42:04,VALID,919.089,VALID,0,VALID,74.6637,VALID,359.068,VALID,23.8731,VALID,159,VALID,0.607031,
2016-10-26, 16:43:04,VALID,919.109,VALID,0,VALID,75.914,VALID,363.259,VALID,23.8926,VALID,170,VALID,0,
2016-10-26, 16:44:04,VALID,919.1,VALID,0,VALID,75.914,VALID,366.482,VALID,23.9121,VALID,157,VALID,0,
2016-10-26, 16:45:04,VALID,919.122,VALID,0,VALID,75.205,VALID,370.457,VALID,23.9335,VALID,131,VALID,0,
2016-10-26, 16:46:04,VALID,919.124,VALID,0,VALID,74.0081,VALID,374.54,VALID,23.9121,VALID,162,VALID,0,
2016-10-26, 16:47:04,VALID,919.133,VALID,0,VALID,75.3346,VALID,383.028,VALID,24.0097,VALID,164,VALID,0,
2016-10-26, 16:48:04,VALID,919.098,VALID,0,VALID,75.1898,VALID,389.582,VALID,24.2049,VALID,180,VALID,0,
2016-10-26, 16:49:04,VALID,919.119,VALID,0,VALID,70.8749,VALID,397.317,VALID,24.2049,VALID,145,VALID,0.0417969,
2016-10-26, 16:50:04,VALID,919.105,VALID,0,VALID,69.5713,VALID,409.888,VALID,24.2049,VALID,151,VALID,0,
2016-10-26, 16:51:04,VALID,919.107,VALID,0,VALID,70.852,VALID,433.31,VALID,24.283,VALID,149,VALID,0,
2016-10-26, 16:52:04,VALID,919.111,VALID,0,VALID,69.4951,VALID,453.617,VALID,24.3221,VALID,138,VALID,0,
2016-10-26, 16:53:04,VALID,919.099,VALID,0,VALID,71.2484,VALID,450.393,VALID,24.3026,VALID,173,VALID,0,
2016-10-26, 16:54:04,VALID,919.096,VALID,0,VALID,70.1888,VALID,441.046,VALID,24.3026,VALID,157,VALID,0,
2016-10-26, 16:55:04,VALID,919.103,VALID,0,VALID,69.0377,VALID,442.013,VALID,24.3593,VALID,166,VALID,0,
2016-10-26, 16:56:04,VALID,919.08,VALID,0,VALID,66.9412,VALID,444.914,VALID,24.3026,VALID,126,VALID,0,
2016-10-26, 16:57:04,VALID,919.084,VALID,0,VALID,65.569,VALID,456.732,VALID,24.3806,VALID,119,VALID,0,
2016-10-26, 16:58:04,VALID,919.044,VALID,0,VALID,67.9551,VALID,480.369,VALID,24.5368,VALID,182,VALID,0,
2016-10-26, 16:59:04,VALID,919.033,VALID,0,VALID,67.0327,VALID,498.097,VALID,24.6735,VALID,138,VALID,0.0925781,
2016-10-26, 17:00:04,VALID,919.004,VALID,0,VALID,65.8206,VALID,508.949,VALID,24.8102,VALID,137,VALID,0,
2016-10-26, 17:01:04,VALID,918.996,VALID,0,VALID,65.1345,VALID,503.899,VALID,24.7693,VALID,159,VALID,0,
2016-10-26, 17:02:04,VALID,918.998,VALID,0,VALID,67.0174,VALID,513.354,VALID,24.945,VALID,190,VALID,0,
2016-10-26, 17:03:04,VALID,918.958,VALID,0,VALID,62.3062,VALID,516.685,VALID,25.1207,VALID,181,VALID,0,
2016-10-26, 17:04:04,VALID,918.973,VALID,0,VALID,60.3622,VALID,508.197,VALID,25.3355,VALID,165,VALID,0,
2016-10-26, 17:05:04,VALID,918.931,VALID,0,VALID,60.5452,VALID,493.477,VALID,25.4722,VALID,136,VALID,0,
2016-10-26, 17:06:04,VALID,918.953,VALID,0,VALID,57.9837,VALID,510.883,VALID,25.4527,VALID,139,VALID,0,
2016-10-26, 17:07:04,VALID,918.93,VALID,0,VALID,58.9519,VALID,510.238,VALID,25.5308,VALID,77,VALID,0,
2016-10-26, 17:08:04,VALID,918.916,VALID,0,VALID,58.7765,VALID,499.279,VALID,25.4917,VALID,77,VALID,0,
2016-10-26, 17:09:04,VALID,918.93,VALID,0,VALID,59.1958,VALID,484.345,VALID,25.5308,VALID,77,VALID,0,
2016-10-26, 17:10:04,VALID,918.913,VALID,0,VALID,59.8514,VALID,482.518,VALID,25.648,VALID,77,VALID,0,
2016-10-26, 17:11:04,VALID,918.934,VALID,0,VALID,59.0129,VALID,485.634,VALID,25.648,VALID,159,VALID,0,
2016-10-26, 17:12:04,VALID,918.906,VALID,0,VALID,60.0954,VALID,462.964,VALID,25.4136,VALID,166,VALID,0,
2016-10-26, 17:13:04,VALID,918.876,VALID,0,VALID,59.3788,VALID,443.839,VALID,25.4136,VALID,171,VALID,0,
2016-10-26, 17:14:04,VALID,918.863,VALID,0,VALID,58.3573,VALID,438.79,VALID,25.5503,VALID,136,VALID,0,
2016-10-26, 17:15:04,VALID,918.843,VALID,0,VALID,60.4308,VALID,425.574,VALID,25.4917,VALID,136,VALID,0,
2016-10-26, 17:16:04,VALID,918.826,VALID,0,VALID,59.7447,VALID,420.31,VALID,25.5484,VALID,136,VALID,0,
2016-10-26, 17:17:04,VALID,918.811,VALID,0,VALID,60.812,VALID,416.12,VALID,25.5874,VALID,123,VALID,0,
2016-10-26, 17:18:04,VALID,918.799,VALID,0,VALID,59.9277,VALID,412.789,VALID,25.7261,VALID,136,VALID,0,
2016-10-26, 17:19:04,VALID,918.834,VALID,0,VALID,58.9366,VALID,408.599,VALID,25.7632,VALID,157,VALID,0,
2016-10-26, 17:20:04,VALID,918.817,VALID,0,VALID,56.1693,VALID,407.954,VALID,25.7437,VALID,146,VALID,0,
2016-10-26, 17:21:04,VALID,918.815,VALID,0,VALID,56.4057,VALID,405.375,VALID,25.607,VALID,137,VALID,0,
2016-10-26, 17:22:04,VALID,918.823,VALID,0,VALID,57.2976,VALID,406.665,VALID,25.4722,VALID,129,VALID,0,
2016-10-26, 17:23:04,VALID,918.819,VALID,0,VALID,58.3573,VALID,410.21,VALID,25.4136,VALID,129,VALID,0,
2016-10-26, 17:24:04,VALID,918.781,VALID,0,VALID,59.3026,VALID,412.037,VALID,25.5484,VALID,70,VALID,0,
2016-10-26, 17:25:04,VALID,918.789,VALID,0,VALID,56.9393,VALID,412.144,VALID,25.6851,VALID,27,VALID,0,
2016-10-26, 17:26:04,VALID,918.738,VALID,0,VALID,56.6496,VALID,420.525,VALID,25.7847,VALID,34,VALID,0,
2016-10-26, 17:27:04,VALID,918.773,VALID,0,VALID,58.0294,VALID,434.707,VALID,25.8823,VALID,32,VALID,0,
2016-10-26, 17:28:04,VALID,918.723,VALID,0,VALID,58.7689,VALID,443.302,VALID,26.0757,VALID,27,VALID,0,
2016-10-26, 17:29:04,VALID,918.734,VALID,0,VALID,56.5429,VALID,445.129,VALID,26.312,VALID,27,VALID,0,
2016-10-26, 17:30:04,VALID,918.735,VALID,0,VALID,56.1236,VALID,448.782,VALID,26.5074,VALID,27,VALID,0,
2016-10-26, 17:31:04,VALID,918.706,VALID,0,VALID,56.4895,VALID,449.211,VALID,26.6226,VALID,27,VALID,0,
2016-10-26, 17:32:04,VALID,918.69,VALID,0,VALID,57.1832,VALID,445.021,VALID,26.564,VALID,156,VALID,0,
2016-10-26, 17:33:04,VALID,918.716,VALID,0,VALID,57.7702,VALID,447.17,VALID,26.4468,VALID,148,VALID,0,
2016-10-26, 17:34:04,VALID,918.685,VALID,0,VALID,59.92,VALID,451.79,VALID,26.5249,VALID,148,VALID,0,
2016-10-26, 17:35:04,VALID,918.696,VALID,0,VALID,59.6837,VALID,454.154,VALID,26.5229,VALID,149,VALID,0,
2016-10-26, 17:36:04,VALID,918.679,VALID,0,VALID,60.225,VALID,461.352,VALID,26.3491,VALID,190,VALID,0,
2016-10-26, 17:37:04,VALID,918.706,VALID,0,VALID,62.6416,VALID,472.634,VALID,26.0561,VALID,190,VALID,0,
2016-10-26, 17:38:04,VALID,918.736,VALID,0,VALID,61.1093,VALID,495.733,VALID,25.9585,VALID,190,VALID,0,
2016-10-26, 17:39:04,VALID,918.728,VALID,0,VALID,60.812,VALID,497.775,VALID,25.8608,VALID,188,VALID,0,
2016-10-26, 17:40:04,VALID,918.769,VALID,0,VALID,59.5999,VALID,513.031,VALID,25.978,VALID,180,VALID,0,
2016-10-26, 17:41:04,VALID,918.778,VALID,0,VALID,61.8335,VALID,528.933,VALID,26.1323,VALID,194,VALID,0,
2016-10-26, 17:42:04,VALID,918.775,VALID,0,VALID,61.4066,VALID,620.795,VALID,25.9956,VALID,249,VALID,0,
2016-10-26, 17:43:04,VALID,918.787,VALID,0,VALID,63.4421,VALID,647.655,VALID,25.8198,VALID,248,VALID,0,
2016-10-26, 17:44:04,VALID,918.717,VALID,0,VALID,61.5972,VALID,683.218,VALID,25.9565,VALID,186,VALID,0,
2016-10-26, 17:45:04,VALID,918.762,VALID,0,VALID,60.0954,VALID,727.591,VALID,26.0151,VALID,226,VALID,0.0183594,
2016-10-26, 17:46:04,VALID,918.765,VALID,0,VALID,58.5021,VALID,775.725,VALID,25.9585,VALID,244,VALID,0,
2016-10-26, 17:47:04,VALID,918.75,VALID,0,VALID,61.6048,VALID,799.147,VALID,25.9565,VALID,256,VALID,0,
2016-10-26, 17:48:04,VALID,918.759,VALID,0,VALID,59.7066,VALID,790.659,VALID,26.0541,VALID,221,VALID,0,
2016-10-26, 17:49:04,VALID,918.792,VALID,0,VALID,58.5402,VALID,816.338,VALID,26.1518,VALID,232,VALID,0.375391,
2016-10-26, 17:50:04,VALID,918.754,VALID,0,VALID,60.0573,VALID,826.545,VALID,26.0737,VALID,215,VALID,0,
2016-10-26, 17:51:04,VALID,918.768,VALID,0,VALID,63.9376,VALID,809.462,VALID,26.1713,VALID,211,VALID,0,
2016-10-26, 17:52:04,VALID,918.774,VALID,0,VALID,64.212,VALID,797.213,VALID,26.1713,VALID,252,VALID,0,
2016-10-26, 17:53:04,VALID,918.758,VALID,0,VALID,64.4941,VALID,819.454,VALID,26.308,VALID,264,VALID,0,
2016-10-26, 17:54:04,VALID,918.732,VALID,0,VALID,60.5909,VALID,791.841,VALID,26.4057,VALID,240,VALID,0,
2016-10-26, 17:55:04,VALID,918.72,VALID,0,VALID,61.3228,VALID,798.395,VALID,26.6205,VALID,341,VALID,0,
2016-10-26, 17:56:04,VALID,918.723,VALID,0,VALID,60.8196,VALID,837.611,VALID,26.8745,VALID,359,VALID,0.20625,
2016-10-26, 17:57:04,VALID,918.714,VALID,0,VALID,60.7739,VALID,863.182,VALID,27.0482,VALID,358,VALID,0,
2016-10-26, 17:58:04,VALID,918.721,VALID,0,VALID,61.155,VALID,837.826,VALID,27.0677,VALID,274,VALID,0,
2016-10-26, 17:59:04,VALID,918.708,VALID,0,VALID,56.8707,VALID,797.106,VALID,26.8159,VALID,275,VALID,0.123047,
2016-10-26, 18:00:04,VALID,918.655,VALID,0,VALID,54.9191,VALID,917.01,VALID,26.5815,VALID,256,VALID,0.252734,
2016-10-26, 18:01:04,VALID,918.698,VALID,0,VALID,54.294,VALID,898.53,VALID,26.3862,VALID,246,VALID,0.0195313,
2016-10-26, 18:02:04,VALID,918.662,VALID,0,VALID,56.764,VALID,905.836,VALID,26.2494,VALID,224,VALID,0.46875,
2016-10-26, 18:03:04,VALID,918.669,VALID,0,VALID,57.0918,VALID,899.39,VALID,26.0541,VALID,278,VALID,0.534375,
2016-10-26, 18:04:04,VALID,918.697,VALID,0,VALID,57.2595,VALID,977.177,VALID,25.9585,VALID,254,VALID,0.121875,